Location: Unspecified
(17.6330°N, 0.0000°E)
Time: 01:32:35
(UTC+00:00)

Courier 1B - All Passes

Search period start: 25 June 2019 00:00
Search period end: 05 July 2019 00:00
Orbit: 963 x 1209 km, 28.3° (Epoch: 23 June)

Date Brightness Start Highest point End Pass type
(mag) Time Alt. Az. Time Alt. Az. Time Alt. Az.
25 Jun - 00:18:11 10° W 00:25:28 43° SSW 00:32:48 10° SE night (unlit)
25 Jun - 02:17:00 10° SW 02:19:42 12° SSW 02:22:23 10° SSW night (unlit)
25 Jun - 13:52:14 10° SW 13:58:04 36° SSE 14:04:07 10° E daylight
25 Jun - 15:45:23 10° WSW 15:52:00 75° NNW 15:59:00 10° ENE daylight
25 Jun - 17:40:21 10° WNW 17:46:42 39° N 17:53:27 10° ENE daylight
25 Jun - 19:35:23 10° WNW 19:41:58 37° N 19:48:53 10° ENE visible
25 Jun - 21:29:37 10° WNW 21:37:02 61° NNE 21:44:45 10° E visible
25 Jun - 23:24:00 10° WNW 23:31:32 57° SSW 23:39:12 10° SE visible
26 Jun - 01:20:48 10° WSW 01:25:44 18° SSW 01:30:39 10° S night (unlit)
26 Jun - 12:59:14 10° SSW 13:04:24 25° SSE 13:09:39 10° E daylight
26 Jun - 14:51:40 10° WSW 14:58:12 85° SSE 15:05:03 10° ENE daylight
26 Jun - 16:46:19 10° W 16:52:39 43° NNW 16:59:22 10° ENE daylight
26 Jun - 18:41:29 10° WNW 18:47:48 35° N 18:54:28 10° ENE daylight
26 Jun - 20:35:50 10° WNW 20:42:56 51° NNE 20:50:25 10° E visible
26 Jun - 22:29:58 10° WNW 22:37:33 74° SSW 22:45:25 10° ESE visible
27 Jun - 00:25:42 10° W 00:31:47 25° SSW 00:37:56 10° SSE night (unlit)
27 Jun - 12:06:37 10° S 12:10:44 17° SSE 12:14:50 10° ESE daylight
27 Jun - 13:58:05 10° SW 14:04:29 64° SSE 14:11:05 10° ENE daylight
27 Jun - 15:52:19 10° W 15:58:41 51° NNW 16:05:25 10° ENE daylight
27 Jun - 17:47:31 10° WNW 17:53:39 34° N 18:00:09 10° ENE daylight
27 Jun - 19:42:05 10° WNW 19:48:51 43° NNE 19:55:59 10° E visible
27 Jun - 21:36:05 10° WNW 21:43:34 88° NNE 21:51:25 10° ESE visible
27 Jun - 23:31:05 10° W 23:37:51 34° SSW 23:44:45 10° SSE visible
28 Jun - 11:14:57 10° SSE 11:17:00 11° SSE 11:19:01 10° SE daylight
28 Jun - 13:04:39 10° SW 13:10:48 46° SSE 13:17:02 10° E daylight
28 Jun - 14:58:22 10° W 15:04:48 62° NNW 15:11:31 10° ENE daylight
28 Jun - 16:53:31 10° WNW 16:59:34 35° N 17:05:57 10° ENE daylight
28 Jun - 18:48:18 10° WNW 18:54:44 38° N 19:01:32 10° ENE visible
28 Jun - 20:42:19 10° WNW 20:49:34 71° NNE 20:57:16 10° ESE visible
28 Jun - 22:36:48 10° W 22:43:55 45° SSW 22:51:18 10° SE visible
29 Jun - 00:34:50 10° WSW 00:38:12 13° SSW 00:41:34 10° S night (unlit)
29 Jun - 12:11:24 10° SSW 12:17:08 33° SSE 12:22:52 10° E daylight
29 Jun - 14:04:31 10° WSW 14:11:00 78° NNW 14:17:40 10° ENE daylight
29 Jun - 15:59:28 10° WNW 16:05:32 38° N 16:11:53 10° ENE daylight
29 Jun - 17:54:30 10° WNW 18:00:37 35° N 18:07:07 10° ENE daylight
29 Jun - 19:48:36 10° WNW 19:55:34 58° NNE 20:02:59 10° E visible
29 Jun - 21:42:45 10° WNW 21:50:00 60° SSW 21:57:37 10° SE visible
29 Jun - 23:39:08 10° WSW 23:44:13 19° SSW 23:49:24 10° S night (unlit)
30 Jun - 11:18:23 10° SSW 11:23:27 24° SSE 11:28:27 10° E daylight
30 Jun - 13:10:47 10° WSW 13:17:15 81° SSE 13:23:48 10° ENE daylight
30 Jun - 15:05:26 10° W 15:11:34 43° NNW 15:17:56 10° ENE daylight
30 Jun - 17:00:37 10° WNW 17:06:33 33° N 17:12:46 10° ENE daylight
30 Jun - 18:54:55 10° WNW 19:01:34 47° NNE 19:08:38 10° E visible
30 Jun - 20:48:51 10° WNW 20:56:04 77° SSW 21:03:44 10° ESE visible
30 Jun - 22:44:15 10° W 22:50:17 26° SSW 22:56:30 10° SSE visible
01 Jul - 10:25:45 10° S 10:29:44 17° SSE 10:33:39 10° ESE daylight
01 Jul - 12:17:09 10° SW 12:23:34 60° SSE 12:29:55 10° ENE daylight
01 Jul - 14:11:24 10° W 14:17:41 51° NNW 14:24:05 10° ENE daylight
01 Jul - 16:06:40 10° WNW 16:12:29 33° N 16:18:34 10° ENE daylight
01 Jul - 18:01:13 10° WNW 18:07:32 40° NNE 18:14:14 10° E daylight
01 Jul - 19:55:05 10° WNW 20:02:09 84° NNE 20:09:42 10° ESE visible
01 Jul - 21:49:49 10° W 21:56:22 35° SSW 22:03:13 10° SSE visible
02 Jul - 09:34:10 10° SSE 09:35:57 11° SSE 09:37:42 10° SE daylight
02 Jul - 11:23:40 10° SW 11:29:52 44° SSE 11:35:57 10° E daylight
02 Jul - 13:17:25 10° WSW 13:23:51 64° NNW 13:30:19 10° ENE daylight
02 Jul - 15:12:38 10° WNW 15:18:28 34° N 15:24:30 10° ENE daylight
02 Jul - 17:07:29 10° WNW 17:13:31 36° N 17:19:51 10° ENE daylight
02 Jul - 19:01:24 10° WNW 19:08:14 67° NNE 19:15:32 10° ESE visible
02 Jul - 20:55:41 10° W 21:02:29 47° SSW 21:09:41 10° SE visible
02 Jul - 22:53:13 10° WSW 22:56:43 14° SSW 23:00:18 10° S visible
03 Jul - 10:30:21 10° SSW 10:36:11 32° SSE 10:41:50 10° E daylight
03 Jul - 12:23:31 10° WSW 12:30:04 82° NNW 12:36:34 10° ENE daylight
03 Jul - 14:18:33 10° WNW 14:24:30 38° N 14:30:34 10° NE daylight
03 Jul - 16:13:41 10° WNW 16:19:29 33° N 16:25:31 10° ENE daylight
03 Jul - 18:07:45 10° WNW 18:14:18 54° NNE 18:21:17 10° E daylight
03 Jul - 20:01:44 10° WNW 20:08:37 62° SSW 20:15:58 10° SE visible
03 Jul - 21:57:48 10° WSW 22:02:46 19° SSW 22:07:56 10° SSE visible
04 Jul - 09:37:16 10° SSW 09:42:27 23° SSE 09:47:28 10° E daylight
04 Jul - 11:29:41 10° WSW 11:36:21 77° SSE 11:42:48 10° ENE daylight
04 Jul - 13:24:26 10° W 13:30:35 44° NNW 13:36:45 10° ENE daylight
04 Jul - 15:19:46 10° WNW 15:25:27 32° N 15:31:18 10° ENE daylight
04 Jul - 17:14:05 10° WNW 17:20:22 44° NNE 17:26:59 10° E daylight
04 Jul - 19:07:57 10° WNW 19:14:46 80° SSW 19:22:05 10° ESE visible
04 Jul - 21:03:06 10° W 21:08:53 26° SSW 21:14:56 10° SSE visible
